Hourly Weather Kistendey

Today, 29 October, Thursday

Time Temperature Precipitation Wind Pressure Humidity
00:00 -1°C° 0 mm 3 mps 754 mmHg 61%
01:00 -1°C° 0 mm 3 mps 754 mmHg 62%
02:00 -1°C° 0 mm 3 mps 754 mmHg 64%
03:00 -2°C° 0 mm 3 mps 754 mmHg 67%
04:00 -2°C° 0 mm 3 mps 754 mmHg 68%
05:00 -2°C° 0 mm 3 mps 754 mmHg 69%
06:00 -2°C° 0 mm 3 mps 753 mmHg 70%
07:00 -1°C° 0 mm 3 mps 753 mmHg 65%
08:00 -1°C° 0 mm 4 mps 753 mmHg 61%
09:00 0°C° 0 mm 5 mps 753 mmHg 55%
10:00 +2°C° 0 mm 5 mps 753 mmHg 51%
11:00 +3°C° 0 mm 5 mps 753 mmHg 47%
12:00 +6°C° 0 mm 5 mps 752 mmHg 43%
13:00 +6°C° 0 mm 5 mps 752 mmHg 43%
14:00 +6°C° 0 mm 5 mps 752 mmHg 44%
15:00 +7°C° 0 mm 5 mps 751 mmHg 44%
16:00 +6°C° 0 mm 5 mps 751 mmHg 47%
17:00 +5°C° 0 mm 5 mps 751 mmHg 50%
18:00 +4°C° 0 mm 4 mps 750 mmHg 53%
19:00 +5°C° 0 mm 4 mps 750 mmHg 54%
20:00 +5°C° 0 mm 4 mps 750 mmHg 54%
21:00 +5°C° 0 mm 4 mps 750 mmHg 55%
22:00 +5°C° 0 mm 4 mps 749 mmHg 58%
23:00 +5°C° 0 mm 5 mps 749 mmHg 61%

Tomorrow, 30 October, Friday

Time Temperature Precipitation Wind Pressure Humidity
00:00 +5°C° 0 mm 5 mps 749 mmHg 64%
01:00 +5°C° 0 mm 5 mps 749 mmHg 67%
02:00 +5°C° 0 mm 5 mps 748 mmHg 69%
03:00 +4°C° 0 mm 4 mps 748 mmHg 71%
04:00 +3°C° 0.3 mm 5 mps 748 mmHg 70%
05:00 +5°C° 0.3 mm 5 mps 747 mmHg 70%
06:00 +5°C° 0.3 mm 5 mps 747 mmHg 69%
07:00 +5°C° 0.4 mm 5 mps 747 mmHg 68%
08:00 +5°C° 0.4 mm 5 mps 747 mmHg 67%
09:00 +5°C° 0.4 mm 5 mps 747 mmHg 67%
10:00 +6°C° 0 mm 5 mps 747 mmHg 64%
11:00 +6°C° 0 mm 5 mps 747 mmHg 62%
12:00 +7°C° 0 mm 5 mps 746 mmHg 60%
13:00 +6°C° 0.5 mm 5 mps 746 mmHg 69%
14:00 +6°C° 0.5 mm 5 mps 746 mmHg 77%
15:00 +5°C° 0.5 mm 5 mps 746 mmHg 86%
16:00 +5°C° 0.5 mm 5 mps 746 mmHg 86%
17:00 +5°C° 0.5 mm 5 mps 746 mmHg 86%
18:00 +5°C° 0.5 mm 5 mps 745 mmHg 85%
19:00 +6°C° 0.2 mm 5 mps 745 mmHg 84%
20:00 +6°C° 0.2 mm 5 mps 745 mmHg 82%
21:00 +6°C° 0.2 mm 5 mps 745 mmHg 81%
22:00 +6°C° 0.3 mm 5 mps 745 mmHg 81%
23:00 +6°C° 0.3 mm 4 mps 744 mmHg 80%

Day after tomorrow, 31 October, Saturday

Time Temperature Precipitation Wind Pressure Humidity
00:00 +6°C° 0.3 mm 4 mps 744 mmHg 80%
01:00 +6°C° 0.1 mm 4 mps 744 mmHg 79%
02:00 +7°C° 0.1 mm 3 mps 743 mmHg 78%
03:00 +7°C° 0.1 mm 3 mps 743 mmHg 77%
04:00 +7°C° 0.3 mm 3 mps 743 mmHg 80%
05:00 +7°C° 0.3 mm 3 mps 743 mmHg 84%
06:00 +7°C° 0.3 mm 3 mps 743 mmHg 88%
07:00 +7°C° 0.1 mm 3 mps 743 mmHg 85%
08:00 +7°C° 0.1 mm 3 mps 743 mmHg 83%
09:00 +7°C° 0.1 mm 3 mps 743 mmHg 81%
10:00 +7°C° 0.2 mm 2 mps 743 mmHg 82%
11:00 +8°C° 0.2 mm 2 mps 743 mmHg 83%
12:00 +8°C° 0.2 mm 2 mps 744 mmHg 84%
13:00 +10°C° 0 mm 1 mps 744 mmHg 84%
14:00 +10°C° 0 mm 1 mps 744 mmHg 83%
15:00 +11°C° 0 mm 1 mps 744 mmHg 83%
16:00 +11°C° 0 mm 1 mps 744 mmHg 85%
17:00 +10°C° 0 mm 1 mps 744 mmHg 87%
18:00 +10°C° 0 mm 1 mps 745 mmHg 89%
19:00 +9°C° 0 mm 2 mps 745 mmHg 89%
20:00 +9°C° 0 mm 2 mps 745 mmHg 90%
21:00 +9°C° 0 mm 2 mps 746 mmHg 90%
22:00 +9°C° 0.2 mm 2 mps 746 mmHg 91%
23:00 +9°C° 0.2 mm 3 mps 746 mmHg 92%

1 November, Sunday

Time Temperature Precipitation Wind Pressure Humidity
00:00 +9°C° 0.2 mm 3 mps 746 mmHg 92%
01:00 +9°C° 0.1 mm 3 mps 746 mmHg 92%
02:00 +8°C° 0.1 mm 4 mps 746 mmHg 92%
03:00 +8°C° 0.1 mm 4 mps 746 mmHg 91%
04:00 +7°C° 0.1 mm 4 mps 746 mmHg 90%
05:00 +7°C° 0.1 mm 4 mps 746 mmHg 89%
06:00 +7°C° 0.1 mm 4 mps 746 mmHg 88%
07:00 +7°C° 0.1 mm 4 mps 747 mmHg 87%
08:00 +7°C° 0.1 mm 4 mps 747 mmHg 86%
09:00 +7°C° 0.1 mm 4 mps 747 mmHg 86%
10:00 +8°C° 0 mm 4 mps 748 mmHg 82%
11:00 +9°C° 0 mm 5 mps 748 mmHg 79%
12:00 +9°C° 0 mm 5 mps 748 mmHg 76%
13:00 +9°C° 0.2 mm 5 mps 748 mmHg 77%
14:00 +9°C° 0.2 mm 5 mps 748 mmHg 78%
15:00 +9°C° 0.2 mm 5 mps 748 mmHg 79%
16:00 +8°C° 0.4 mm 4 mps 748 mmHg 82%
17:00 +8°C° 0.4 mm 4 mps 748 mmHg 85%
18:00 +8°C° 0.4 mm 3 mps 749 mmHg 88%
19:00 +7°C° 0.4 mm 4 mps 749 mmHg 87%
20:00 +7°C° 0.4 mm 4 mps 749 mmHg 86%
21:00 +7°C° 0.4 mm 4 mps 749 mmHg 85%
22:00 +7°C° 0 mm 4 mps 749 mmHg 86%
23:00 +7°C° 0 mm 4 mps 750 mmHg 87%

2 November, Monday

Time Temperature Precipitation Wind Pressure Humidity
00:00 +7°C° 0 mm 3 mps 750 mmHg 89%
01:00 +7°C° 0 mm 3 mps 750 mmHg 90%
02:00 +5°C° 0 mm 4 mps 750 mmHg 91%
03:00 +5°C° 0 mm 4 mps 750 mmHg 92%
04:00 +5°C° 0 mm 4 mps 750 mmHg 92%
05:00 +5°C° 0 mm 4 mps 751 mmHg 92%
06:00 +5°C° 0 mm 5 mps 751 mmHg 92%
07:00 +5°C° 0 mm 5 mps 751 mmHg 91%
08:00 +5°C° 0 mm 5 mps 751 mmHg 90%
09:00 +5°C° 0 mm 5 mps 751 mmHg 88%
10:00 +6°C° 0 mm 4 mps 752 mmHg 84%
11:00 +7°C° 0 mm 4 mps 752 mmHg 80%
12:00 +8°C° 0 mm 4 mps 752 mmHg 75%
13:00 +8°C° 0 mm 4 mps 752 mmHg 73%
14:00 +10°C° 0 mm 4 mps 752 mmHg 71%
15:00 +10°C° 0 mm 4 mps 752 mmHg 69%
16:00 +9°C° 0 mm 3 mps 752 mmHg 73%
17:00 +8°C° 0 mm 3 mps 752 mmHg 78%
18:00 +8°C° 0 mm 3 mps 753 mmHg 82%
19:00 +7°C° 0 mm 3 mps 753 mmHg 84%
20:00 +7°C° 0 mm 3 mps 753 mmHg 86%
21:00 +7°C° 0 mm 3 mps 753 mmHg 88%
22:00 +5°C° 0 mm 3 mps 753 mmHg 89%
23:00 +5°C° 0 mm 3 mps 754 mmHg 89%

3 November, Tuesday

Time Temperature Precipitation Wind Pressure Humidity
00:00 +5°C° 0 mm 3 mps 754 mmHg 90%
01:00 +5°C° 0 mm 3 mps 754 mmHg 91%
02:00 +4°C° 0 mm 3 mps 754 mmHg 91%
03:00 +4°C° 0 mm 3 mps 754 mmHg 91%
04:00 +4°C° 0 mm 3 mps 754 mmHg 91%
05:00 +4°C° 0 mm 3 mps 755 mmHg 91%
06:00 +4°C° 0 mm 3 mps 755 mmHg 91%
07:00 +4°C° 0 mm 3 mps 755 mmHg 86%
08:00 +5°C° 0 mm 3 mps 755 mmHg 82%
09:00 +6°C° 0 mm 4 mps 756 mmHg 78%
10:00 +7°C° 0 mm 4 mps 756 mmHg 73%
11:00 +8°C° 0 mm 4 mps 756 mmHg 67%
12:00 +11°C° 0 mm 4 mps 756 mmHg 62%
13:00 +11°C° 0 mm 4 mps 756 mmHg 60%
14:00 +11°C° 0 mm 4 mps 756 mmHg 59%
15:00 +11°C° 0 mm 4 mps 756 mmHg 58%
16:00 +10°C° 0 mm 4 mps 756 mmHg 63%
17:00 +8°C° 0 mm 4 mps 756 mmHg 67%
18:00 +7°C° 0 mm 4 mps 756 mmHg 72%
19:00 +6°C° 0 mm 4 mps 756 mmHg 72%
20:00 +6°C° 0 mm 4 mps 756 mmHg 73%
21:00 +5°C° 0 mm 4 mps 756 mmHg 74%
22:00 +5°C° 0 mm 4 mps 756 mmHg 75%
23:00 +5°C° 0 mm 4 mps 756 mmHg 75%
Show more